Location: Rounton
(54.4000°N, 1.3500°W)
Time: 21:42:14
(UTC+00:00)

Vanguard 1 - Pass Details

Date: 02 December 2021
Orbit: 652 x 3830 km, 34.2° (Epoch: 16 January)

Event Time Altitude Azimuth Distance (km) Brightness Sun altitude
Rises 23:48:29 0° 214° (SW) 7,509 - -57.5°
Reaches altitude 10° 23:54:16 10° 205° (SSW) 6,737 - -57.6°
Maximum altitude 00:12:32 32° 154° (SSE) 5,218 - -57.4°
Exits shadow 00:24:15 19° 113° (ESE) 5,590 13.7 -57.1°
Drops below altitude 10° 00:28:48 10° 102° (ESE) 6,054 14.0 -56.9°
Sets 00:33:32 0° 93° (E) 6,690 14.4 -56.7°
